Fayetteville, NC

2:24 PM EDT on April 22, 2018 (GMT -0400)
Fayetteville Regional-Grannis

Weather History for KFAY - November, 2012

Change the Weather History Date:

Friday, November 23, 2012

  Actual Average Record
Temperature  
Mean Temperature 49 °F 53 °F  
Max Temperature 68 °F 64 °F 81 °F (1931)
Min Temperature 30 °F 41 °F 16 °F (1937)
Degree Days  
Heating Degree Days 16 13  
Month to date heating degree days 326 223  
Since 1 July heating degree days 452 350  
Cooling Degree Days 0 0  
Month to date cooling degree days 0 11  
Year to date cooling degree days 2083 1989  
Moisture  
Dew Point 34 °F    
Average Humidity 59    
Maximum Humidity 92    
Minimum Humidity 26    
Precipitation  
Precipitation 0.00 in 0.10 in 1.52 in (1957)
Month to date precipitation 0.92 2.09  
Year to date precipitation 36.44 41.13  
Sea Level Pressure  
Sea Level Pressure 30.01 in    
Wind  
Wind Speed 5 mph (SW)    
Max Wind Speed 17 mph    
Max Gust Speed 22 mph    
Visibility 10 miles    
Events      
T = Trace of Precipitation, MM = Missing Value Source: NWS Daily Summary

Daily Weather History Graph

Daily Weather History Graph

Search for Another Location

Airport or City:

Astronomy

Nov. 23, 2012 Rise Set
Actual Time 6:58 AM EST 5:05 PM EST
Civil Twilight 6:30 AM EST 5:33 PM EST
Nautical Twilight 5:59 AM EST 6:04 PM EST
Astronomical Twilight 5:29 AM EST 6:34 PM EST
Moon 2:11 PM EST (11/23) 2:24 AM EST (11/23)
Length of Visible Light 11h 02m
Length of Day
10h 07m
Waxing Gibbous, 79% of the Moon is Illuminated
Nov 23
Waxing Gibbous
Nov 28
Full
Dec 6
Last Quarter
Dec 13
New
Dec 20
First Quarter

Hourly Weather History & Observations

Time (EST) Temp. Windchill Dew Point Humidity Pressure Visibility Wind Dir Wind Speed Gust Speed Precip Events Conditions
12:53 AM 37.9 °F - 30.0 °F 73% 30.14 in 10.0 mi Calm Calm - N/A   Clear
1:53 AM 36.0 °F - 30.9 °F 82% 30.13 in 10.0 mi Calm Calm - N/A   Clear
2:53 AM 33.1 °F - 30.0 °F 89% 30.14 in 10.0 mi Calm Calm - N/A   Clear
3:53 AM 33.1 °F - 28.9 °F 85% 30.12 in 10.0 mi Calm Calm - N/A   Clear
4:53 AM 33.1 °F - 28.9 °F 85% 30.13 in 10.0 mi Calm Calm - N/A   Clear
5:53 AM 33.1 °F - 28.9 °F 85% 30.13 in 10.0 mi Calm Calm - N/A   Clear
6:53 AM 30.9 °F 27.5 °F 28.0 °F 89% 30.13 in 10.0 mi West 3.5 mph - N/A   Clear
8:53 AM 44.1 °F - 35.1 °F 71% 30.12 in 10.0 mi Calm Calm - N/A   Clear
9:53 AM 53.1 °F - 30.9 °F 43% 30.11 in 10.0 mi WSW 6.9 mph - N/A   Clear
10:53 AM 59.0 °F - 28.9 °F 32% 30.09 in 10.0 mi SW 5.8 mph - N/A   Clear
11:53 AM 63.0 °F - 28.9 °F 28% 30.05 in 10.0 mi WSW 8.1 mph - N/A   Clear
12:53 PM 66.0 °F - 30.9 °F 27% 30.00 in 10.0 mi SW 9.2 mph - N/A   Clear
1:53 PM 66.9 °F - 34.0 °F 30% 29.96 in 10.0 mi SW 8.1 mph - N/A   Clear
2:53 PM 66.9 °F - 36.0 °F 32% 29.94 in 10.0 mi SW 11.5 mph 21.9 mph N/A   Clear
3:53 PM 66.0 °F - 37.0 °F 34% 29.91 in 10.0 mi SW 15.0 mph - N/A   Clear
4:53 PM 61.0 °F - 37.9 °F 42% 29.91 in 10.0 mi SW 6.9 mph - N/A   Clear
5:53 PM 57.9 °F - 39.0 °F 49% 29.91 in 10.0 mi SW 4.6 mph - N/A   Clear
6:53 PM 55.0 °F - 39.0 °F 55% 29.91 in 10.0 mi SSW 5.8 mph - N/A   Clear
7:53 PM 55.0 °F - 39.9 °F 57% 29.89 in 10.0 mi SW 6.9 mph - N/A   Clear
8:53 PM 53.1 °F - 41.0 °F 64% 29.89 in 10.0 mi SW 6.9 mph - N/A   Clear
9:53 PM 55.9 °F - 42.1 °F 60% 29.88 in 10.0 mi WSW 5.8 mph - N/A   Overcast
10:53 PM 53.1 °F - 42.1 °F 66% 29.87 in 10.0 mi West 6.9 mph - N/A   Partly Cloudy
11:53 PM 53.1 °F - 42.1 °F 66% 29.87 in 10.0 mi WNW 6.9 mph - N/A   Clear